sat.trackr.live / text

‹ back to catalog

STARLINK-6122

NORAD 56128 · 2023-046AN

PAYLOAD ACTIVE UNKNOWN

§ Identity

Operator
Country
US
Launch date
2023-03-29
Launch site
AFETR
Launch vehicle
Mass (kg)
RCS (m²)

Purposes: comms

External: N2YO · Heavens-Above · Gunter

§ Orbital elements

Epoch: 2026-05-25T04:18:15.585120Z

Period
94.27 min
Inclination
43.0035°
Eccentricity
0.0000768
Mean motion
15.27576760 rev/d
Perigee alt
482.5 km
Apogee alt
483.6 km
Semi-major
6,861.2 km
B*
1.5330e-5
RAAN
75.4110°
Arg perigee
262.0043°
Mean anomaly
98.0721°
Rev number
17,389

§ Raw data

STARLINK-61221 56128U 23046AN  26145.17934705  .00000160  00000+0  15330-4 0  99932 56128  43.0035  75.4110 0000768 262.0043  98.0721 15.27576760173896

JSON: /api/v1/satellites/56128 · /tle

For live sub-satellite position, see the globe view (requires WebGL).

§ Visibility from observer

Set your observer location to see the next 7 days of passes ≥ 10°. The values pass through the URL so the page stays shareable.

No JS? Fill the form by hand. The geolocation button needs JavaScript.